#timestamp,LO_Frequency,Hit,StdDev 
1542780015.7,286047001.4,N
1542780035.6,286047003.6,Y
1542780055.4,286047001.6,P
1542780075.2,286047001.5,P
1542780095.1,286046999.9,N
1542780096.0,286046999.9,N
1542780115.8,286047011.9,Y
1542780135.7,286047000.9,P
1542780155.5,286047000.5,P
1542780175.3,286047002.4,P
1542780195.2,286046999.8,N
1542780215.0,286047001.2,N
1542780215.9,286047001.2,N
1542780235.7,286047000.3,N
1542780255.6,286047004.4,Y
1542780275.4,286047001.8,P
1542780295.3,286047001.6,P
1542780315.1,286047004.0,P
1542780316.0,286047004.0,Y
1542780335.8,286047000.1,P
1542780355.7,286047000.5,N
1542780375.5,286047002.6,P
1542780395.4,286047002.6,N
1542780415.2,286047002.6,N
1542780435.0,286047000.1,N
1542780435.9,286047000.1,N
1542780455.8,286047001.7,N
1542780475.6,286047005.8,Y
1542780495.4,286047003.6,P
1542780515.3,286047003.6,P
1542780535.1,286047004.2,P
1542780555.9,286047001.6,N
1542780575.7,286047003.5,Y
1542780595.5,286047000.6,P
1542780615.4,286047000.4,N
1542780635.2,286047002.3,N
1542780655.0,286047001.9,N
1542780656.0,286047001.9,N
1542780675.8,286047000.0,N
1542780695.6,286047002.5,N
1542780715.5,286047001.4,N
1542780735.3,286047004.0,Y
1542780755.1,286047001.6,P
1542780775.9,286047002.2,P
1542780795.7,286047004.1,P
1542780815.6,286047003.8,Y
1542780835.4,286047002.6,P
1542780855.2,286047001.4,P
1542780875.1,286047004.0,P
1542780876.0,286047004.0,Y
1542780895.8,286046998.6,P
1542780915.7,286046998.7,N
1542780935.5,286046999.9,N
1542780955.3,286047002.7,N
1542780975.2,286047000.4,N
1542780995.0,286046998.4,N
1542780995.9,286046998.4,N
1542781015.7,286046998.3,N
1542781035.6,286047000.4,N
1542781055.4,286047000.2,N
1542781075.3,286047000.1,N
1542781095.1,286047000.1,N
1542781096.0,286047000.1,N
1542781115.8,286047002.0,N
1542781135.7,286047000.0,N
1542781155.5,286047002.5,N
1542781175.3,286047004.0,N
1542781195.2,286047003.5,N
1542781215.0,286047003.2,N
1542781215.9,286047003.2,N
1542781235.8,286047005.1,N
1542781255.6,286047005.9,N
1542781275.4,286047003.3,N
1542781295.3,286047004.5,N
1542781315.1,286047006.7,N
1542781335.9,286047007.1,N
1542781355.7,286047007.6,N
1542781375.5,286047007.5,N
1542781395.4,286047007.6,N
1542781415.2,286047007.0,N
1542781435.0,286047006.1,N
1542781435.9,286047006.1,N
1542781455.8,286047008.7,N
1542781475.6,286047008.3,N
1542781495.5,286047010.3,Y
1542781515.3,286047007.3,P
1542781535.1,286047007.3,P
1542781555.9,286047004.5,N
1542781575.7,286047006.7,Y
1542781595.6,286047002.1,P
1542781615.4,286047000.6,N
1542781635.2,286046998.6,N
1542781655.1,286046998.1,N
1542781656.0,286046998.1,N
1542781675.8,286046998.2,N
1542781695.7,286046999.5,N
1542781715.5,286046998.8,N
1542781735.3,286047001.2,N
1542781755.2,286046998.5,N
1542781775.9,286046999.2,N
1542781795.7,286046998.7,N
1542781815.6,286046998.9,N
1542781835.4,286046999.4,N
1542781855.3,286046999.0,N
1542781875.1,286047000.1,N
1542781876.0,286047000.1,N
1542781895.8,286047000.9,N
1542781915.7,286047001.0,N
1542781935.5,286047001.2,N
1542781955.3,286047002.8,N
1542781975.2,286047001.0,N
1542781995.0,286047000.7,N
1542781995.9,286047000.7,N
1542782015.8,286047000.6,N
1542782035.6,286047001.8,N
1542782055.4,286047004.1,N
1542782075.3,286047004.3,N
1542782095.1,286047001.3,N
1542782115.9,286047001.3,N
1542782135.7,286047002.1,N
1542782155.5,286046999.7,N
1542782175.4,286047001.9,N
1542782195.2,286047002.0,N
1542782215.0,286047003.0,N
1542782215.9,286047003.0,N
1542782235.8,286047004.2,N
1542782255.6,286047001.3,N
1542782275.5,286047003.7,N
1542782295.3,286047001.6,N
1542782315.1,286047001.8,N
1542782335.9,286047003.2,N
1542782355.7,286047001.7,N
1542782375.5,286047003.9,N
1542782395.4,286047003.7,N
1542782415.2,286047003.6,N
1542782435.1,286047004.0,Y
1542782436.0,286047004.0,P
1542782455.8,286047000.6,N
1542782475.6,286047002.4,N
1542782495.5,286047000.4,N
1542782515.3,286047001.2,N
1542782535.2,286046999.1,N
1542782555.9,286046998.7,N
1542782575.7,286046997.0,N
1542782595.6,286046997.7,N
1542782615.4,286046996.7,N
1542782635.2,286046999.0,N
1542782655.1,286046998.3,N
1542782656.0,286046998.3,N
1542782675.8,286046997.0,N
1542782695.7,286046995.1,N
1542782715.5,286046997.9,N
1542782735.3,286046998.0,N
1542782755.2,286046995.1,N
1542782775.0,286046995.7,N
1542782775.9,286046995.7,N
1542782795.8,286046995.3,N
1542782815.6,286046995.7,N
1542782835.4,286046995.7,N
1542782855.3,286046994.3,N
1542782875.1,286046993.6,N
1542782895.8,286046993.9,N
1542782915.7,286046992.0,N
1542782935.5,286046992.3,N
1542782955.4,286046992.5,N
1542782975.2,286046991.9,N
1542782995.0,286046992.2,N
1542782995.9,286046992.2,N
1542783015.8,286046992.3,N
1542783035.6,286046991.7,Y
1542783055.5,286046997.1,P
1542783075.3,286046999.2,N
1542783095.1,286046999.2,N
1542783115.9,286046996.9,N
1542783135.7,286046997.7,N
1542783155.5,286046993.4,Y
1542783175.4,286046995.4,P
1542783195.2,286046996.6,P
1542783215.1,286046997.2,P
1542783216.0,286046997.2,Y
1542783235.8,286047000.7,P
1542783255.6,286047001.1,N
1542783275.5,286047000.2,N
1542783295.3,286047000.3,N
1542783315.2,286047002.4,N
1542783335.9,286047001.2,N
1542783355.7,286047000.3,N
1542783375.6,286047000.4,N
1542783395.4,286047001.0,N
1542783415.2,286046996.8,N
1542783435.1,286046996.8,N
1542783436.0,286046996.8,N
1542783455.8,286046996.5,N
1542783475.7,286046998.9,N
1542783495.5,286046999.5,N
1542783515.3,286046999.5,N
1542783535.2,286046996.9,N
1542783555.0,286046997.3,N
1542783555.9,286046997.3,N
1542783575.7,286046997.3,N
1542783595.6,286046995.4,N
